Location: Joplin
(37.0842°N, 94.5131°W)
Time: 13:37:36
(UTC-05:00)

Envisat - Pass Details

Date: 07 October 2021
Orbit: 764 x 766 km, 98.2° (Epoch: 26 October)

Event Time Altitude Azimuth Distance (km) Brightness Sun altitude
Rises 04:55:12 0° 40° (NE) 3,233 7.0 -29.2°
Reaches altitude 10° 05:00:12 10° 83° (E) 2,299 6.4 -28.2°
Maximum altitude 05:00:46 10° 90° (E) 2,286 6.4 -28.1°
Drops below altitude 10° 05:01:20 10° 96° (E) 2,297 6.3 -28.0°
Sets 05:06:17 0° 139° (SE) 3,215 6.6 -27.1°
